EST,Max TemperatureF,Mean TemperatureF,Min TemperatureF,Max Dew PointF,MeanDew PointF,Min DewpointF,Max Humidity, Mean Humidity, Min Humidity, Max Sea Level PressureIn, Mean Sea Level PressureIn, Min Sea Level PressureIn, Max VisibilityMiles, Mean VisibilityMiles, Min VisibilityMiles, Max Wind SpeedMPH, Mean Wind SpeedMPH, Max Gust SpeedMPH,PrecipitationIn, CloudCover, Events, WindDirDegrees
2013-1-1,41,38,35,28,27,23,70,62,54,30.04,29.99,29.93,10,10,10,18,6,29,0.00,7,,286
2013-1-2,35,30,24,22,15,10,63,49,35,30.25,30.13,30.02,10,9,2,14,6,25,0.00,1,,343
2013-1-3,38,27,16,19,16,13,80,60,40,30.25,30.19,30.14,10,9,0,21,4,25,0.00,0,,222
2013-1-4,39,36,32,21,19,18,56,50,44,30.21,30.17,30.13,10,10,10,26,15,31,0.00,3,,273
2013-1-5,44,38,31,25,20,17,64,52,39,30.38,30.27,30.16,10,10,6,24,5,31,0.00,1,,302
2013-1-6,45,36,27,28,25,22,81,63,45,30.17,30.11,30.04,10,9,5,13,4,17,0.00,7,,235
2013-1-7,42,34,25,29,23,20,81,60,47,30.45,30.36,30.18,10,10,7,15,8,20,0.00,5,,295
2013-1-8,52,36,20,31,24,17,88,66,44,30.41,30.38,30.35,10,6,3,6,1,15,0.00,0,,274
2013-1-9,54,39,24,38,28,21,92,67,42,30.41,30.34,30.25,10,6,2,25,4,31,0.00,2,,254
2013-1-10,52,44,35,29,27,24,64,52,39,30.61,30.52,30.43,10,10,10,18,4,24,0.00,0,,359
2013-1-11,47,41,35,41,35,27,100,77,53,30.48,30.23,30.10,10,6,0,13,3,20,0.08,6,Fog-Rain,93
2013-1-12,58,49,40,47,41,37,100,84,67,30.18,30.13,30.09,10,3,0,7,1,8,0.00,6,Fog,351
2013-1-13,58,50,41,51,44,39,96,84,72,30.09,30.03,29.94,10,4,0,7,1,13,0.00,5,Fog,10
2013-1-14,56,47,38,51,42,30,93,72,50,30.33,30.12,29.96,10,7,1,17,7,23,0.22,6,Rain,343
2013-1-15,41,38,34,35,32,29,96,83,70,30.36,30.25,30.16,10,7,2,12,5,45,0.53,8,Rain,17
2013-1-16,44,39,33,36,33,30,96,91,85,30.15,30.02,29.86,10,5,2,12,1,14,0.57,7,Rain,71
2013-1-17,44,40,36,32,27,20,70,55,39,30.14,30.09,30.01,10,10,10,18,6,23,0.00,3,,323
2013-1-18,38,32,25,23,13,5,62,45,27,30.50,30.38,30.12,10,10,10,25,8,36,0.00,2,,305
2013-1-19,58,43,28,27,21,19,69,46,23,30.35,30.17,29.95,10,10,10,16,9,22,0.00,0,,181
2013-1-20,55,42,29,29,16,7,63,41,19,30.10,29.94,29.82,10,10,10,32,12,41,0.00,0,,270
2013-1-21,42,34,25,16,13,6,68,49,30,30.10,29.98,29.83,10,10,9,28,8,35,T,5,,274
2013-1-22,25,19,13,0,-5,-8,46,37,28,30.30,30.20,30.01,10,10,10,31,14,40,0.00,3,,285
2013-1-23,24,18,11,11,-1,-5,58,44,29,30.35,30.26,30.14,10,10,2,17,7,23,T,5,Snow,288
2013-1-24,26,20,14,14,7,-5,84,59,34,30.53,30.27,30.08,10,5,1,23,9,30,0.02,5,Snow,354
2013-1-25,22,16,10,16,11,-3,84,62,39,30.53,30.21,30.05,10,6,0,15,3,20,0.05,6,Fog-Snow,145
2013-1-26,30,23,15,25,20,14,85,74,63,30.45,30.24,30.09,10,4,1,12,1,15,0.01,8,Snow,332
2013-1-27,35,27,19,19,15,12,68,58,47,30.60,30.51,30.46,10,10,7,10,3,14,0.00,1,,297
2013-1-28,43,37,30,39,31,21,92,78,63,30.43,30.23,30.05,7,4,2,8,2,12,0.17,8,Rain-Snow,144
2013-1-29,70,56,41,52,46,39,89,71,53,30.11,30.03,29.94,10,9,5,10,3,16,0.00,4,,168
2013-1-30,70,56,42,58,51,39,96,81,66,29.91,29.59,29.23,10,4,1,30,4,37,1.49,6,Rain,150
2013-1-31,55,41,27,54,28,9,93,67,40,29.90,29.56,29.21,10,9,1,41,19,52,0.26,5,Rain,267